Location: Lafig�re
(44.4503°N, 4.0357°E)
Time: 01:44:06
(UTC+00:00)

Transit 4A - Pass Details

Date: 24 January 2021
Orbit: 866 x 979 km, 66.8° (Epoch: 24 February)

Event Time Altitude Azimuth Distance (km) Brightness Sun altitude
Rises 02:29:57 0° 331° (NNW) 3,641 - -49.3°
Reaches altitude 10° 02:32:47 10° 340° (NNW) 2,676 - -48.8°
Maximum altitude 02:38:27 36° 46° (NE) 1,443 - -47.9°
Drops below altitude 10° 02:43:57 10° 112° (ESE) 2,591 - -47.0°
Exits shadow 02:45:01 - 116° (ESE) 2,944 10.9 -46.8°
Sets 02:46:38 0° 121° (ESE) 3,511 11.3 -46.5°
